Retour au catalogue

BREEZE-M DEB

LostHEO
NORAD 34255·DEBRIS·🇷🇺 Russia

Lancé Feb 28, 2006 depuis Baikonur Cosmodrome

Loading…

Prochains Passages (prochaines 24 heures)

TLE

PériméSource: Space-Track

Époque: Sep 14, 2021, 02:37 UTC

1 34255U 06006BW  21257.10963338 -.00001039  00000-0 -17709-2 0  9992
2 34255  51.9984 308.6886 4895468 127.8419 287.4810  5.52848217  2589

Suivez BREEZE-M DEB en temps réel avec AllMySat

Download on the App Store